STARLINK-35891

Last updated on Fri Dec 19 2025 00:02:10 GMT+0000 (Coordinated Universal Time)

1 67045U 25294R 25351.83335648 -.01368403 55800-3 -32177-2 0 9990 2 67045 43.0000 151.2660 0001725 276.7513 145.7613 15.96018963 2128
UTC large
Height (km)
Speed (km/s)
/
Latitude / Longitude
Inclination (degrees)
Orbital Period (minutes)
Azimuth
Elevation
Range (km)
Doppler Factor

Next 0 passes for location: London (51.5072 / 0.1276)

Sorry there are no passes over London.